Lid_Strength_Index
12 13 13 12 11 11 11 11 11 11 11 10 10 10 10 10 10 10 10 10 9 9
13 13 12 12 10 11 11 11 12 12 12 12 11 11 11 11 10 10 10 9 9 9
13 12 12 11 12 12 12 12 12 12 12 12 12 12 12 11 11 11 10 10 10 9
13 12 12 12 12 13 13 13 13 13 13 13 13 12 12 12 11 11 11 10 10 10
12 12 13 13 13 13 14 13 13 13 13 13 12 12 12 12 12 12 12 11 10 10
13 14 15 16 14 13 14 14 14 13 14 13 13 12 12 12 12 12 11 11 10 10
15 15 15 16 15 14 14 14 14 13 13 13 13 13 12 12 12 12 11 10 10 10
17 17 17 18 15 14 14 13 13 14 13 13 13 12 12 11 11 12 12 11 11 10
19 19 18 18 15 14 14 14 14 14 14 13 12 11 10 10 12 12 12 12 11 10
21 21 20 19 14 13 14 14 14 15 15 14 13 11 11 12 12 12 12 12 12 11
23 23 21 21 17 14 14 14 14 15 15 15 13 12 12 13 15 14 13 13 12 12
23 23 23 21 21 19 14 15 14 15 15 16 15 12 12 14 14 14 14 13 12 12
23 23 22 21 20 20 19 17 15 15 17 15 15 12 11 13 14 15 15 14 13 12
23 21 21 18 18 18 18 18 18 17 17 18 16 14 11 11 14 15 15 14 14 14